Weather History for Centerville, IA

Change the Weather History Date:

Thursday, December 6, 2012

  Actual Average Record
Temperature  
Mean Temperature 46 °F -  
Max Temperature 51 °F 39 °F 68 °F (1975)
Min Temperature 41 °F 22 °F -4 °F (1977)
Degree Days  
Heating Degree Days 19    
Moisture  
Dew Point 37 °F    
Average Humidity 74    
Maximum Humidity 100    
Minimum Humidity 58    
Precipitation  
Precipitation 0.00 in - - ()
Sea Level Pressure  
Sea Level Pressure 29.96 in    
Wind  
Wind Speed 10 mph (South)    
Max Wind Speed 14 mph    
Max Gust Speed 16 mph    
Visibility 10 miles    
Events Rain    
Averages and records for this station are not official NWS values.
T = Trace of Precipitation, MM = Missing Value Source: NWS Daily Summary

Daily Weather History Graph

Daily Weather History Graph

Search for Another Location

Airport:

Trip Planner

Search our weather history database for the weather conditions in past years. The results will help you decide how hot, cold, wet, or windy it might be!

Date:

Astronomy

Dec. 06, 2012 Rise Set
Actual Time 7:21 AM CST 4:44 PM CST
Civil Twilight 6:50 AM CST 5:14 PM CST
Nautical Twilight 6:16 AM CST 5:48 PM CST
Astronomical Twilight 5:43 AM CST 6:22 PM CST
Moon No Moon Rise 12:12 PM CST (12/6)
Length of Visible Light 10h 23m
Length of Day
9h 22m
Waning Gibbous, 49% of the Moon is Illuminated
Dec 6
Waning Gibbous
Dec 13
New
Dec 19
First Quarter
Dec 28
Full
Jan 4
Last Quarter

Hourly Weather History & Observations

Time (CST) Temp. Windchill Dew Point Humidity Pressure Visibility Wind Dir Wind Speed Gust Speed Precip Events Conditions
12:15 AM 42.8 °F 35.8 °F 35.6 °F 76% 30.04 in 10.0 mi SE 13.8 mph - N/A   Clear
12:35 AM 42.8 °F 35.8 °F 33.8 °F 70% 30.03 in 10.0 mi SSE 13.8 mph - N/A   Clear
12:55 AM 42.8 °F 36.2 °F 33.8 °F 70% 30.03 in 10.0 mi SE 12.7 mph - N/A   Clear
1:15 AM 42.8 °F 36.2 °F 33.8 °F 70% 30.03 in 10.0 mi SSE 12.7 mph - N/A   Clear
1:35 AM 42.8 °F 37.0 °F 33.8 °F 70% 30.03 in 10.0 mi SE 10.4 mph - N/A   Clear
1:55 AM 42.8 °F 38.0 °F 33.8 °F 70% 30.03 in 10.0 mi SE 8.1 mph - N/A   Clear
2:15 AM 42.8 °F 38.0 °F 33.8 °F 70% 30.04 in 10.0 mi SE 8.1 mph - N/A   Clear
2:35 AM 41.0 °F 34.7 °F 33.8 °F 76% 30.03 in 10.0 mi SE 10.4 mph - N/A   Clear
2:55 AM 42.8 °F 36.6 °F 33.8 °F 70% 30.02 in 10.0 mi SE 11.5 mph - N/A   Clear
3:15 AM 42.8 °F 37.5 °F 33.8 °F 70% 30.01 in 10.0 mi SSE 9.2 mph - N/A   Mostly Cloudy
3:35 AM 41.0 °F 35.2 °F 33.8 °F 76% 30.01 in 10.0 mi SSE 9.2 mph - N/A   Mostly Cloudy
3:55 AM 41.0 °F 35.8 °F 33.8 °F 76% 30.01 in 10.0 mi SSE 8.1 mph - N/A   Scattered Clouds
4:15 AM 41.0 °F 35.2 °F 33.8 °F 76% 30.00 in 10.0 mi SSE 9.2 mph - N/A   Mostly Cloudy
4:35 AM 41.0 °F 35.2 °F 33.8 °F 76% 30.00 in 10.0 mi SSE 9.2 mph - N/A   Overcast
4:55 AM 41.0 °F 34.3 °F 33.8 °F 76% 29.99 in 10.0 mi SSE 11.5 mph - N/A   Overcast
5:15 AM 42.8 °F 37.5 °F 32.0 °F 66% 29.99 in 10.0 mi SSE 9.2 mph - N/A   Mostly Cloudy
5:35 AM 42.8 °F 37.5 °F 32.0 °F 66% 29.99 in 10.0 mi SSE 9.2 mph - N/A   Clear
5:55 AM 42.8 °F 36.6 °F 32.0 °F 66% 29.99 in 10.0 mi SSE 11.5 mph - N/A   Clear
6:15 AM 42.8 °F 37.0 °F 32.0 °F 66% 29.98 in 10.0 mi SSE 10.4 mph - N/A   Mostly Cloudy
6:35 AM 42.8 °F 36.6 °F 32.0 °F 66% 29.97 in 10.0 mi SSE 11.5 mph - N/A   Overcast
6:55 AM 42.8 °F 36.6 °F 32.0 °F 66% 29.97 in 10.0 mi SSE 11.5 mph - N/A   Overcast
7:15 AM 42.8 °F 37.0 °F 32.0 °F 66% 29.98 in 10.0 mi South 10.4 mph - N/A   Scattered Clouds
7:35 AM 44.6 °F 38.8 °F 32.0 °F 61% 29.98 in 10.0 mi South 11.5 mph - N/A   Clear
7:55 AM 44.6 °F 38.8 °F 32.0 °F 61% 29.97 in 10.0 mi South 11.5 mph - N/A   Clear
8:15 AM 44.6 °F 38.8 °F 32.0 °F 61% 29.97 in 10.0 mi South 11.5 mph - N/A   Mostly Cloudy
8:35 AM 44.6 °F 38.8 °F 32.0 °F 61% 29.98 in 10.0 mi South 11.5 mph - N/A   Scattered Clouds
8:55 AM 44.6 °F 39.2 °F 32.0 °F 61% 29.98 in 10.0 mi South 10.4 mph - N/A   Partly Cloudy
9:15 AM 46.4 °F 41.5 °F 33.8 °F 62% 29.98 in 10.0 mi South 10.4 mph - N/A   Partly Cloudy
9:35 AM 46.4 °F 41.1 °F 33.8 °F 62% 29.97 in 10.0 mi South 11.5 mph 16.1 mph N/A   Partly Cloudy
9:55 AM 48.2 °F - 33.8 °F 58% 29.97 in 10.0 mi South 12.7 mph - N/A   Partly Cloudy
10:15 AM 46.4 °F 40.7 °F 33.8 °F 62% 29.97 in 10.0 mi South 12.7 mph - N/A   Partly Cloudy
10:35 AM 46.4 °F 41.5 °F 33.8 °F 62% 29.97 in 10.0 mi South 10.4 mph - N/A   Clear
10:55 AM 46.4 °F 41.9 °F 33.8 °F 62% 29.96 in 10.0 mi South 9.2 mph - N/A   Partly Cloudy
11:15 AM 48.2 °F - 35.6 °F 62% 29.95 in 10.0 mi South 10.4 mph - N/A   Partly Cloudy
11:35 AM 48.2 °F - 35.6 °F 62% 29.94 in 10.0 mi South 10.4 mph - N/A   Clear
11:55 AM 48.2 °F - 35.6 °F 62% 29.93 in 10.0 mi SSW 11.5 mph - N/A   Clear
12:15 PM 48.2 °F - 35.6 °F 62% 29.92 in 10.0 mi South 9.2 mph - N/A   Clear
12:35 PM 50.0 °F - 37.4 °F 62% 29.91 in 10.0 mi SSW 10.4 mph - N/A   Partly Cloudy
12:55 PM 50.0 °F - 37.4 °F 62% 29.91 in 10.0 mi SSW 11.5 mph - N/A   Partly Cloudy
1:15 PM 50.0 °F - 37.4 °F 62% 29.90 in 10.0 mi South 11.5 mph - N/A   Partly Cloudy
1:35 PM 50.0 °F - 37.4 °F 62% 29.91 in 10.0 mi SW 10.4 mph - N/A   Clear
1:55 PM 50.0 °F - 39.2 °F 66% 29.91 in 10.0 mi SW 9.2 mph - N/A   Clear
2:15 PM 51.8 °F - 39.2 °F 62% 29.91 in 10.0 mi SW 10.4 mph - N/A   Clear
2:35 PM 50.0 °F - 39.2 °F 66% 29.91 in 10.0 mi WSW 11.5 mph - N/A   Partly Cloudy
2:55 PM 50.0 °F - 39.2 °F 66% 29.91 in 10.0 mi SW 6.9 mph - N/A   Partly Cloudy
3:15 PM 50.0 °F - 39.2 °F 66% 29.89 in 10.0 mi SW 6.9 mph - N/A   Clear
3:35 PM 50.0 °F - 39.2 °F 66% 29.91 in 10.0 mi WSW 6.9 mph - N/A   Clear
3:55 PM 50.0 °F - 39.2 °F 66% 29.91 in 10.0 mi West 5.8 mph - N/A   Scattered Clouds
4:15 PM 50.0 °F - 39.2 °F 66% 29.91 in 10.0 mi West 6.9 mph - N/A   Mostly Cloudy
4:55 PM 48.2 °F - 39.2 °F 71% 29.91 in 10.0 mi NW 4.6 mph - N/A   Mostly Cloudy
5:15 PM 46.4 °F 45.2 °F 39.2 °F 76% 29.92 in 10.0 mi West 3.5 mph - N/A   Mostly Cloudy
5:55 PM 46.4 °F 45.2 °F 39.2 °F 76% 29.94 in 10.0 mi SSW 3.5 mph - N/A   Mostly Cloudy
6:15 PM 46.4 °F 44.3 °F 39.2 °F 76% 29.94 in 10.0 mi South 4.6 mph - N/A   Mostly Cloudy
6:35 PM 46.4 °F 45.2 °F 39.2 °F 76% 29.93 in 10.0 mi ESE 3.5 mph - N/A Rain Light Rain
6:55 PM 44.6 °F - 41.0 °F 87% 29.93 in 10.0 mi Calm Calm - N/A   Overcast
7:15 PM 44.6 °F - 42.8 °F 93% 29.94 in 10.0 mi Calm Calm - N/A Rain Light Rain
7:35 PM 44.6 °F - 44.6 °F 100% 29.94 in 10.0 mi Calm Calm - N/A   Overcast
7:55 PM 44.6 °F - 44.6 °F 100% 29.94 in 10.0 mi Calm Calm - N/A   Mostly Cloudy
8:35 PM 42.8 °F 38.0 °F 41.0 °F 93% 29.95 in 10.0 mi North 8.1 mph - N/A Rain Light Rain
8:55 PM 42.8 °F 38.6 °F 41.0 °F 93% 29.95 in 9.0 mi North 6.9 mph - N/A Rain Light Rain
9:15 PM 41.0 °F 36.4 °F 41.0 °F 100% 29.96 in 10.0 mi North 6.9 mph - N/A Rain Light Rain
9:35 PM 41.0 °F 37.1 °F 41.0 °F 100% 29.97 in 10.0 mi NNW 5.8 mph - N/A Rain Light Rain
9:55 PM 41.0 °F 37.1 °F 41.0 °F 100% 29.96 in 9.0 mi North 5.8 mph - N/A Rain Light Rain
10:15 PM 41.0 °F 36.4 °F 41.0 °F 100% 29.96 in 10.0 mi North 6.9 mph - N/A Rain Light Rain
10:35 PM 41.0 °F 36.4 °F 41.0 °F 100% 29.95 in 8.0 mi North 6.9 mph - N/A Rain Light Rain
10:55 PM 41.0 °F 37.1 °F 41.0 °F 100% 29.96 in 9.0 mi NNE 5.8 mph - N/A Rain Light Rain
11:15 PM 41.0 °F 35.8 °F 41.0 °F 100% 29.97 in 6.0 mi North 8.1 mph - N/A Rain Light Rain
11:35 PM 41.0 °F 36.4 °F 41.0 °F 100% 29.97 in 5.0 mi North 6.9 mph - N/A Rain Light Rain
11:55 PM 41.0 °F 36.4 °F 41.0 °F 100% 29.97 in 7.0 mi North 6.9 mph - N/A Rain Light Rain